Change the Weather History Date:

Wednesday, December 5, 2012

  Actual Average Record
Temperature  
Mean Temperature 38 °F 25 °F  
Max Temperature 57 °F 35 °F 74 °F (1939)
Min Temperature 19 °F 14 °F -23 °F (1956)
Degree Days  
Heating Degree Days 27 40  
Month to date heating degree days 119 198  
Since 1 July heating degree days 2032 2326  
Cooling Degree Days 0 0  
Month to date cooling degree days 0 0  
Year to date cooling degree days 314 210  
Moisture  
Dew Point 24 °F    
Average Humidity 45    
Maximum Humidity 67    
Minimum Humidity 23    
Precipitation  
Precipitation 0.00 in 0.02 in 0.30 in (1932)
Month to date precipitation T 0.11  
Year to date precipitation 14.82 16.30  
Snow  
Snow 0.00 in - - ()
Snow Depth 0.00 in    
Sea Level Pressure  
Sea Level Pressure 29.79 in    
Wind  
Wind Speed 18 mph (WSW)    
Max Wind Speed 38 mph    
Max Gust Speed 46 mph    
Visibility 10 miles    
Events      
T = Trace of Precipitation, MM = Missing Value Source: NWS Daily Summary

Daily Weather History Graph

Daily Weather History Graph

Search for Another Location

Airport or City:

Trip Planner

Search our weather history database for the weather conditions in past years. The results will help you decide how hot, cold, wet, or windy it might be!

Date:

Astronomy

Dec. 05, 2012 Rise Set
Actual Time 7:48 AM MST 4:29 PM MST
Civil Twilight 7:13 AM MST 5:04 PM MST
Nautical Twilight 6:34 AM MST 5:42 PM MST
Astronomical Twilight 5:57 AM MST 6:19 PM MST
Moon 11:42 PM MST (12/5) 11:55 AM MST (12/5)
Length of Visible Light 9h 50m
Length of Day
8h 40m
Waning Gibbous, 59% of the Moon is Illuminated
Dec 5
Waning Gibbous
Dec 6
Last Quarter
Dec 13
New
Dec 19
First Quarter
Dec 28
Full

Hourly Weather History & Observations

Time (MST) Temp. Windchill Dew Point Humidity Pressure Visibility Wind Dir Wind Speed Gust Speed Precip Events Conditions
12:54 AM 50.0 °F - 32.0 °F 50% 29.78 in 10.0 mi SSW 13.8 mph - N/A   Mostly Cloudy
1:54 AM 48.9 °F - 33.1 °F 54% 29.77 in 10.0 mi SSW 16.1 mph - N/A   Mostly Cloudy
2:54 AM 46.9 °F - 33.1 °F 59% 29.76 in 10.0 mi SSW 15.0 mph - N/A   Mostly Cloudy
3:54 AM 48.0 °F - 34.0 °F 58% 29.72 in 10.0 mi SSW 18.4 mph 27.6 mph N/A   Clear
4:54 AM 48.9 °F - 33.1 °F 54% 29.70 in 10.0 mi SW 26.5 mph 33.4 mph N/A   Clear
5:54 AM 50.0 °F - 32.0 °F 50% 29.68 in 10.0 mi SW 23.0 mph 29.9 mph N/A   Clear
7:54 AM 50.0 °F - 30.9 °F 48% 29.67 in 10.0 mi SW 18.4 mph 27.6 mph N/A   Clear
8:54 AM 51.1 °F - 30.9 °F 46% 29.65 in 10.0 mi SW 21.9 mph 28.8 mph N/A   Clear
9:54 AM 52.0 °F - 32.0 °F 47% 29.63 in 10.0 mi WSW 11.5 mph 20.7 mph N/A   Clear
10:54 AM 55.9 °F - 32.0 °F 40% 29.64 in 10.0 mi WSW 26.5 mph 35.7 mph N/A   Clear
11:54 AM 57.0 °F - 33.1 °F 40% 29.64 in 10.0 mi WSW 25.3 mph 38.0 mph N/A   Scattered Clouds
12:39 PM 51.8 °F - 33.8 °F 50% 29.69 in 10.0 mi WNW 16.1 mph 27.6 mph N/A   Overcast
12:54 PM 51.1 °F - 34.0 °F 52% 29.66 in 10.0 mi WNW 15.0 mph 20.7 mph N/A   Overcast
1:54 PM 51.1 °F - 19.9 °F 29% 29.67 in 10.0 mi WNW 29.9 mph 42.6 mph N/A   Clear
2:54 PM 48.9 °F - 12.9 °F 24% 29.70 in 10.0 mi WNW 26.5 mph 42.6 mph N/A   Clear
3:54 PM 46.0 °F 37.6 °F 12.9 °F 26% 29.78 in 10.0 mi WNW 24.2 mph 34.5 mph N/A   Clear
4:54 PM 42.1 °F 32.8 °F 12.0 °F 29% 29.83 in 10.0 mi WNW 21.9 mph 29.9 mph N/A   Clear
5:54 PM 37.0 °F 28.1 °F 14.0 °F 39% 29.87 in 10.0 mi WNW 15.0 mph - N/A   Clear
6:54 PM 34.0 °F 23.8 °F 12.0 °F 40% 29.93 in 10.0 mi WNW 16.1 mph 23.0 mph N/A   Clear
7:54 PM 30.9 °F 21.2 °F 12.9 °F 47% 29.97 in 10.0 mi West 12.7 mph - N/A   Clear
8:54 PM 28.0 °F 18.6 °F 12.9 °F 53% 30.00 in 10.0 mi West 10.4 mph - N/A   Clear
9:54 PM 24.1 °F 13.1 °F 12.9 °F 62% 30.03 in 10.0 mi WSW 11.5 mph - N/A   Clear
10:54 PM 19.9 °F 9.3 °F 10.9 °F 68% 30.04 in 10.0 mi WSW 9.2 mph - N/A   Clear
11:54 PM 21.9 °F 11.7 °F 12.0 °F 66% 30.03 in 10.0 mi West 9.2 mph - N/A   Clear